Flag for Netherlands Weather past 2 weeks in Eindhoven, Netherlands

Now
43 °F

Partly cloudy.


Feels Like: 35 °F
Forecast: 35 / 45 °F
Wind: 17 mph from West

Location: Eindhoven Airport

Current Time: Mar 2, 2015 at 8:09:00 PM

Latest Report: Mar 2, 2015 at 7:25 PM


Visibility: N/A

Pressure: 29.86 "Hg

Humidity: 57%

Dew point: 28 °F

Location of EindhovenLocation

Historic Weather in Eindhoven — Graph

°F

Eindhoven temperature yesterday

Maximum temperature yesterday: 55 °F (at 1:55 PM)
Minimum temperature yesterday: 43 °F (at 2:55 AM)
Average temperature yesterday: 48 °F

Past Weeks' High & Low Weather Summary

 TemperatureHumidityPressure
High55 °F (Mar 1, 1:55 PM)100% (Feb 15, 11:55 PM)30.74 "Hg (Feb 15, 11:55 PM)
Low25 °F (Feb 16, 12:55 AM)50% (Feb 28, 4:55 PM)29.33 "Hg (Feb 23, 5:25 AM)
Average39 °F86%29.91 "Hg
* Reported Feb 15 6:25 PM — Mar 2 6:55 PM, Eindhoven, Weather by CustomWeather, © 2015

Note: Actual official high and low records may vary slightly from our data, if they occured in-between our weather recording intervals... More about our weather records

Advertising

Eindhoven weather history for previous 24 hours

 ConditionsComfort  
Time TempWeatherWind HumidityBarometerVisibility
6:55 PM
Mon, Mar 2
41 °FQuite cool.16 mph61%29.83 "HgN/A
6:25 PM43 °FPassing clouds.17 mph57%29.80 "HgN/A
5:55 PM43 °FPassing clouds.21 mph61%29.80 "HgN/A
5:25 PM43 °FScattered clouds.14 mph66%29.77 "HgN/A
4:55 PM43 °FPassing clouds.20 mph61%29.77 "HgN/A
4:25 PM41 °FScattered clouds.16 mph81%29.74 "HgN/A
4:04 PM39 °FBroken clouds.14 mph87%29.74 "HgN/A
3:55 PM39 °FBroken clouds.13 mph93%29.74 "HgN/A
3:25 PM37 °FSprinkles. Partly sunny.16 mph93%29.71 "Hg4 mi
3:03 PM37 °FRain showers. Broken clouds.16 mph93%29.71 "HgN/A
2:59 PM39 °FSprinkles. Broken clouds.16 mph87%29.71 "HgN/A
2:25 PM39 °FRain showers. Mostly cloudy.17 mph87%29.71 "Hg6 mi
1:55 PM46 °FMore clouds than sun.17 mph50%29.68 "HgN/A
1:25 PM46 °FBroken clouds.17 mph53%29.68 "HgN/A
12:55 PM48 °FScattered clouds.16 mph58%29.68 "HgN/A
12:25 PM46 °FBroken clouds.18 mph62%29.68 "HgN/A
11:55 AM46 °FBroken clouds.21 mph62%29.68 "HgN/A
11:25 AM46 °FPassing clouds.15 mph66%29.68 "HgN/A
10:55 AM45 °FPassing clouds.17 mph66%29.68 "HgN/A
10:25 AM45 °FPassing clouds.15 mph71%29.65 "HgN/A
9:55 AM43 °FPassing clouds.15 mph76%29.65 "HgN/A
9:25 AM43 °FQuite cool.14 mph76%29.65 "HgN/A
8:55 AM41 °FQuite cool.12 mph76%29.62 "HgN/A
8:25 AM39 °FChilly.8 mph75%29.62 "HgN/A
7:55 AM37 °FChilly.8 mph81%29.62 "HgN/A
7:25 AM37 °FPassing clouds.8 mph81%29.59 "HgN/A
6:55 AM37 °FChilly.8 mph81%29.59 "HgN/A
6:25 AM39 °FOvercast.9 mph75%29.59 "HgN/A
5:55 AM39 °FOvercast.10 mph75%29.59 "HgN/A
5:25 AM39 °FChilly.12 mph75%29.56 "HgN/A
4:55 AM39 °FPassing clouds.12 mph75%29.56 "HgN/A
4:25 AM39 °FChilly.10 mph81%29.53 "HgN/A
3:55 AM41 °FQuite cool.13 mph76%29.53 "HgN/A
3:25 AM41 °FQuite cool.13 mph70%29.53 "HgN/A
2:55 AM43 °FPartly cloudy.16 mph76%29.53 "HgN/A
2:25 AM43 °FPartly cloudy.16 mph76%29.50 "HgN/A
1:55 AM45 °FPassing clouds.21 mph76%29.47 "HgN/A
1:25 AM45 °FMostly cloudy.21 mph76%29.47 "HgN/A
12:55 AM45 °FPassing clouds.18 mph81%29.45 "HgN/A
12:25 AM46 °FOvercast.18 mph82%29.45 "HgN/A
11:55 PM
Sun, Mar 1
46 °FLight rain. Overcast.24 mph87%29.42 "HgN/A
11:25 PM48 °FPartly cloudy.18 mph76%29.42 "HgN/A
10:55 PM48 °FOvercast.16 mph76%29.45 "HgN/A
10:25 PM46 °FOvercast.13 mph76%29.47 "HgN/A
9:55 PM46 °FMostly cloudy.13 mph71%29.50 "HgN/A
9:25 PM46 °FPartly cloudy.9 mph71%29.53 "HgN/A
8:25 PM45 °FOvercast.9 mph71%29.56 "HgN/A
Weather by CustomWeather, © 2015

See weather overviewHow to use our weather pages